[[{"header":{"parameterUnit":"m.s-1","parameterCategory":2,"la1":30.2991,"la2":30.254,"lo1":-89.0895,"lo2":-89.0444,"dy":0.0017,"dx":0.0017,"nx":28,"ny":28,"refTime":"2024-06-08T03:00:00:Z","depth":"0","parameterNumber":2,"parameterNumberName":"U-component_of_CURRENTS"},"data":[0,0,0,0,0,0,0,0,0,0,0,0,0,0,0,0,0,0,0,0,0,0,0,0,0,0,0,0,0,0,0,0,0,0,0,0,0,0,0,0,0,0,0,0,0,0,0,0,0,0,0,0,0,0,0,0,0,0,0.3212,0.3213,0,0.3206,0.3206,0.3206,0.3179,0.3178,0.3178,0.3178,0.3175,0.3176,0.3176,0,0,0,0,0,0,0,0,0,0,0,0,0,0.3206,0.3206,0.3212,0.3213,0.3213,0.3206,0.3206,0.3205,0.3179,0.3178,0.3178,0.3177,0.3175,0.3176,0.3176,0,0,0,0,0,0,0,0,0,0,0,0,0,0.3203,0.3206,0.3212,0.3201,0.32,0.3206,0.3206,0.3205,0.3179,0.3178,0.3178,0.3177,0.3175,0.3176,0.3176,0.319,0,0,0.3177,0.3178,0,0,0,0,0,0,0,0,0.3203,0.3203,0.3202,0.3202,0.3201,0.3195,0.3203,0.3201,0.3179,0.3184,0.3178,0.3177,0.3185,0.3184,0.318,0.319,0.319,0.3177,0.3178,0.3178,0.3178,0,0,0,0,0,0,0,0.3203,0.3203,0.3207,0.3203,0.3202,0.3198,0.3196,0.3202,0.3185,0.3183,0.3182,0.3186,0.3184,0.318,0.318,0.319,0.3177,0.3178,0.3178,0.3178,0.3353,0.3357,0,0,0,0,0,0,0.321,0.3203,0.3207,0.3207,0.3204,0.3199,0.3197,0.3195,0.3185,0.3184,0.3187,0.3185,0.3179,0.318,0.318,0.3302,0.3178,0.3178,0.3179,0.3348,0.3354,0.3358,0,0,0,0,0,0,0.321,0.321,0.3208,0.3207,0.3207,0.3199,0.3198,0.3195,0.3197,0.3188,0.3186,0.3192,0.3179,0.3179,0.3212,0.3297,0.3179,0.3179,0.3343,0.335,0.3356,0.3477,0,0,0,0,0,0,0.321,0.321,0.3214,0.3208,0.3208,0.3222,0.3199,0.3196,0.3201,0.3199,0.3192,0.3191,0.3179,0.3212,0.3213,0.3296,0.3179,0.3338,0.3346,0.3354,0.3468,0.3487,0.3504,0,0,0,0,0,0.3209,0.3217,0.3213,0.3214,0.3212,0.3223,0.3223,0.3213,0.3202,0.3211,0.3219,0.3191,0.3266,0.3214,0.3215,0.33,0.3334,0.3344,0.3353,0.346,0.3483,0.3503,0,0,0,0,0,0,0.3214,0.3215,0.3211,0.3218,0.3226,0.322,0.3229,0.3222,0.3232,0.3235,0.3219,0.3219,0.3294,0.3279,0.3222,0.3382,0.3308,0.3318,0.3389,0.3411,0.3428,0.3468,0.318,0,0,0,0,0,0.3218,0.3225,0.3228,0.3235,0.3242,0.3237,0.3241,0.3239,0.3247,0.3249,0.3248,0.3276,0.3336,0.3352,0.3384,0.3444,0.3457,0.3512,0.353,0.3545,0.3584,0.3675,0.3705,0.3391,0.3391,0.3391,0,0,0.3221,0.3225,0.3228,0.3238,0.3241,0.3275,0.3237,0.3254,0.3303,0.325,0.3308,0.3328,0.3367,0.3454,0.3488,0.3447,0.3641,0.3558,0.357,0.3601,0.3689,0.3719,0.3746,0.3397,0.3396,0.3395,0,0,0.3238,0.3238,0.3252,0.3269,0.3287,0.3302,0.3311,0.3318,0.3341,0.3391,0.3404,0.3479,0.351,0.3589,0.3629,0.3767,0.3735,0.3774,0.3891,0.398,0.4006,0.4029,0.4069,0.4095,0.378,0.3781,0.3781,0,0.3243,0.3265,0.3259,0.3288,0.3321,0.3322,0.3366,0.34,0.3421,0.3469,0.3428,0.3572,0.3598,0.3763,0.3829,0.3813,0.3827,0.3796,0.4002,0.4025,0.4047,0.4083,0.411,0.3788,0.3787,0.3786,0.3785,0,0.3274,0.3302,0.3318,0.3365,0.3401,0.3438,0.3491,0.3538,0.3563,0.36,0.3732,0.3772,0.3862,0.3903,0.3912,0.4105,0.4052,0.401,0.3938,0.4086,0.4114,0.414,0.3798,0.3795,0.3793,0.3791,0,0,0.3258,0.3327,0.3332,0.3378,0.345,0.3484,0.3594,0.3697,0.3779,0.3825,0.3944,0.4085,0.4093,0.4146,0.4171,0.4267,0.4438,0.4215,0.4216,0.424,0.4601,0.4405,0.4413,0.4415,0.4421,0.4426,0.4551,0,0.3288,0.3357,0.3396,0.3495,0.3544,0.3612,0.3712,0.3812,0.3888,0.3998,0.4099,0.4206,0.4189,0.4239,0.4346,0.4429,0.4515,0.4407,0.4469,0.4472,0.4268,0.4441,0.4177,0.4253,0.4576,0.458,0.4583,0,0.3301,0.3357,0.3445,0.3574,0.3603,0.3674,0.3845,0.3932,0.4101,0.416,0.4288,0.4335,0.4535,0.4462,0.4681,0.4603,0.4631,0.4666,0.467,0.447,0.4326,0.4165,0.4288,0.4205,0.4623,0.4619,0.4617,0,0.3284,0.3395,0.3473,0.3513,0.3653,0.3733,0.3822,0.3981,0.4078,0.4267,0.4348,0.453,0.4632,0.4731,0.4804,0.476,0.4992,0.4924,0.4769,0.4752,0.4536,0.449,0.4575,0.507,0.507,0.507,0.5069,0,0.3297,0.336,0.3472,0.3515,0.3639,0.3733,0.3875,0.3992,0.416,0.4282,0.4421,0.454,0.4707,0.4832,0.4873,0.4904,0.5043,0.484,0.48,0.4565,0.4522,0.4441,0.4406,0.5074,0.5073,0.5072,0.5072,0,0.3262,0.3326,0.3426,0.3575,0.3626,0.3714,0.389,0.3993,0.4148,0.4317,0.4383,0.4607,0.4756,0.4865,0.5033,0.497,0.4871,0.498,0.4668,0.4587,0.4306,0.4286,0.4172,0.4067,0.4847,0.4843,0.484,0,0.3244,0.3287,0.3444,0.3513,0.3587,0.3715,0.3807,0.3973,0.4074,0.4332,0.4413,0.4616,0.4708,0.4864,0.4808,0.4822,0.4747,0.4566,0.4441,0.4302,0.4254,0.4107,0.402,0.4209,0.4201,0.4195,0.419,0,0.3233,0.3287,0.338,0.3497,0.3604,0.3717,0.3853,0.3919,0.4104,0.4218,0.4384,0.4478,0.4586,0.4479,0.4465,0.4438,0.4315,0.4424,0.4397,0.3875,0.3612,0.3482,0.4098,0.4131,0.4137,0.4141,0.4144,0.4147,0.3225,0.3277,0.3381,0.3491,0.3595,0.3684,0.3705,0.3824,0.3916,0.3992,0.4203,0.4196,0.4194,0.4118,0.4071,0.3816,0.388,0.3679,0.3704,0.3598,0.338,0.3835,0.3734,0.3737,0.374,0.3743,0.3745,0,0.3204,0.3264,0.3367,0.3459,0.3498,0.3594,0.3696,0.3654,0.364,0.3728,0.3774,0.3698,0.3553,0.3529,0.3315,0.3146,0.3017,0.3079,0.2875,0.2858,0.3374,0.3227,0.2866,0.2866,0.2866,0.2866,0.2866,0.2867,0.3196,0.326,0.3299,0.3325,0.3366,0.3335,0.3342,0.3297,0.3296,0.3163,0.3051,0.3073,0.3161,0.3036,0.282,0.2742,0.2603,0.2379,0.2511,0.2931,0.299,0.3047,0.2905,0.2483,0.2483,0.1824,0.1819,0.1815]},{"header":{"parameterUnit":"m.s-1","parameterCategory":2,"la1":30.2991,"la2":30.254,"lo1":-89.0895,"lo2":-89.0444,"dy":0.0017,"dx":0.0017,"nx":28,"ny":28,"refTime":"2024-06-08T03:00:00:Z","depth":"0","parameterNumber":3,"parameterNumberName":"V-component_of_CURRENTS"},"data":[0,0,0,0,0,0,0,0,0,0,0,0,0,0,0,0,0,0,0,0,0,0,0,0,0,0,0,0,0,0,0,0,0,0,0,0,0,0,0,0,0,0,0,0,0,0,0,0,0,0,0,0,0,0,0,0,0,0,0.0231,0.0231,0,0.02,0.02,0.0199,0.018,0.0179,0.0179,0.0179,0.0143,0.0142,0.0141,0,0,0,0,0,0,0,0,0,0,0,0,0,0.025,0.025,0.0231,0.0231,0.0231,0.02,0.02,0.0199,0.018,0.0179,0.0179,0.0179,0.0143,0.0142,0.0141,0,0,0,0,0,0,0,0,0,0,0,0,0,0.0233,0.025,0.0231,0.0217,0.0216,0.02,0.02,0.0199,0.018,0.0179,0.0179,0.0179,0.0143,0.0142,0.0141,0.0135,0,0,0.0137,0.0136,0,0,0,0,0,0,0,0,0.0234,0.0232,0.022,0.0218,0.0217,0.0194,0.0193,0.0178,0.018,0.0193,0.0179,0.0179,0.016,0.0157,0.0151,0.0133,0.0132,0.0136,0.0136,0.0135,0.0135,0,0,0,0,0,0,0,0.0235,0.0233,0.0219,0.0219,0.0217,0.0204,0.0202,0.019,0.0177,0.0192,0.019,0.0187,0.0159,0.0152,0.015,0.0131,0.0136,0.0135,0.0134,0.0134,0.0145,0.0146,0,0,0,0,0,0,0.0241,0.0234,0.022,0.0218,0.0225,0.0204,0.0202,0.0201,0.0177,0.0174,0.0188,0.0187,0.0155,0.0152,0.0149,0.018,0.0135,0.0134,0.0133,0.0143,0.0145,0.0146,0,0,0,0,0,0,0.0241,0.024,0.0221,0.0225,0.0222,0.0204,0.0204,0.0201,0.0197,0.0174,0.017,0.0188,0.0154,0.015,0.0147,0.0177,0.0133,0.0132,0.0142,0.0144,0.0145,0.0217,0,0,0,0,0,0,0.0242,0.024,0.0243,0.0226,0.0222,0.022,0.0204,0.02,0.0196,0.0194,0.0174,0.017,0.0154,0.015,0.0146,0.0174,0.0131,0.0141,0.0143,0.0145,0.0213,0.0221,0.0227,0,0,0,0,0,0.0243,0.025,0.0243,0.0241,0.0226,0.0221,0.0218,0.0204,0.0196,0.02,0.0187,0.0171,0.016,0.0149,0.0145,0.0173,0.014,0.0142,0.0145,0.021,0.0219,0.0227,0,0,0,0,0,0,0.026,0.0248,0.024,0.0243,0.0236,0.0218,0.022,0.0209,0.0201,0.0201,0.0177,0.0173,0.0184,0.0166,0.0154,0.0183,0.015,0.0152,0.0202,0.021,0.0217,0.0259,0.013,0,0,0,0,0,0.0265,0.0269,0.0253,0.0258,0.0255,0.0238,0.0233,0.0225,0.0215,0.0211,0.0198,0.0189,0.0191,0.0189,0.0182,0.0192,0.0189,0.0209,0.0217,0.0223,0.0254,0.0272,0.0284,0.0154,0.0154,0.0154,0,0,0.0273,0.0268,0.0269,0.0262,0.0254,0.0267,0.0235,0.0235,0.0255,0.0209,0.0229,0.021,0.0198,0.0214,0.0218,0.0203,0.0254,0.0226,0.0231,0.026,0.0276,0.0289,0.0301,0.0156,0.0155,0.0155,0,0,0.0298,0.0286,0.0301,0.0298,0.0292,0.0288,0.0291,0.0278,0.028,0.0289,0.027,0.0276,0.0262,0.0272,0.0273,0.0315,0.0289,0.0303,0.0375,0.0392,0.0403,0.0413,0.0408,0.0418,0.0308,0.0308,0.0309,0,0.031,0.0327,0.0304,0.032,0.0333,0.0303,0.0333,0.033,0.032,0.0339,0.0307,0.0328,0.0302,0.0353,0.0362,0.0336,0.0329,0.0342,0.0403,0.0412,0.0422,0.0415,0.0424,0.0312,0.0312,0.0311,0.0311,0,0.0346,0.0363,0.0373,0.039,0.04,0.0417,0.0415,0.0429,0.0424,0.0426,0.0463,0.0435,0.0457,0.0441,0.041,0.0469,0.0436,0.0407,0.0384,0.0439,0.0428,0.0436,0.0318,0.0316,0.0315,0.0314,0,0,0.0375,0.0396,0.0403,0.0436,0.0442,0.0464,0.0499,0.0537,0.0586,0.0566,0.0637,0.0619,0.0605,0.0607,0.0574,0.058,0.0613,0.0522,0.0521,0.0524,0.0636,0.0573,0.0576,0.0588,0.059,0.0592,0.0595,0,0.0419,0.0472,0.0471,0.0543,0.0578,0.0577,0.0623,0.0652,0.0668,0.0723,0.071,0.0753,0.0668,0.0688,0.0682,0.0645,0.0641,0.0614,0.0578,0.0577,0.052,0.0586,0.0579,0.0578,0.0603,0.0604,0.0605,0,0.0463,0.05,0.0569,0.0645,0.0662,0.0705,0.0797,0.0831,0.0885,0.09,0.0932,0.0916,0.0944,0.0855,0.083,0.0814,0.0737,0.0689,0.0687,0.0619,0.0532,0.053,0.0592,0.0508,0.0618,0.0617,0.0616,0,0.0515,0.0579,0.0647,0.0666,0.0733,0.0788,0.0835,0.0894,0.0961,0.1026,0.1092,0.1088,0.1128,0.1042,0.0929,0.0886,0.089,0.0816,0.0687,0.068,0.0666,0.0654,0.0654,0.0797,0.0797,0.0797,0.0797,0,0.0569,0.0629,0.0683,0.0723,0.0836,0.0858,0.0986,0.1025,0.1118,0.124,0.1197,0.1302,0.1179,0.1156,0.1007,0.0889,0.095,0.0729,0.0693,0.0685,0.0676,0.0593,0.0506,0.0797,0.0797,0.0797,0.0797,0,0.0616,0.0641,0.0734,0.0822,0.0863,0.0948,0.1089,0.1189,0.1251,0.1418,0.1456,0.1492,0.1461,0.1307,0.1189,0.1017,0.0816,0.0817,0.0804,0.0766,0.0533,0.0448,0.0386,0.0344,0.068,0.0679,0.0678,0,0.0646,0.0692,0.0808,0.0886,0.0936,0.1062,0.1164,0.1251,0.1373,0.1553,0.1659,0.1677,0.1721,0.1506,0.1207,0.0945,0.0813,0.0744,0.0654,0.0551,0.0431,0.0375,0.0342,0.0656,0.0654,0.0653,0.0653,0,0.0715,0.075,0.0831,0.0978,0.1102,0.1243,0.14,0.1514,0.1653,0.1803,0.1994,0.2041,0.183,0.1584,0.1195,0.099,0.0665,0.0713,0.0634,0.0445,0.0363,0.0295,0.0604,0.0644,0.0645,0.0646,0.0646,0.0646,0.0776,0.0847,0.0953,0.11,0.1241,0.1425,0.1562,0.1742,0.1954,0.2182,0.2217,0.2292,0.1915,0.1388,0.1118,0.0614,0.0594,0.0452,0.0367,0.033,0.0267,0.0541,0.0516,0.0516,0.0516,0.0516,0.0516,0,0.0857,0.0938,0.1075,0.1258,0.1421,0.1479,0.1725,0.1876,0.2138,0.2305,0.2451,0.2281,0.1823,0.134,0.0645,0.0334,0.0241,0.0181,0.013,0.0118,0.0402,0.038,0.0292,0.0292,0.0292,0.0292,0.0292,0.0292,0.0908,0.1041,0.1109,0.1379,0.1514,0.1742,0.1885,0.2105,0.2258,0.2454,0.2465,0.2447,0.2094,0.0952,0.0248,0.008,-0.0081,-0.0157,-0.0216,-0.0006,0.0015,0.0034,-0.0002,-0.0168,-0.0169,-0.0434,-0.0437,-0.0439]}],[{"header":{"parameterUnit":"m.s-1","parameterCategory":2,"la1":30.2991,"la2":30.254,"lo1":-89.0895,"lo2":-89.0444,"dy":0.0017,"dx":0.0017,"nx":28,"ny":28,"refTime":"2024-06-08T03:00:00:Z","depth":"2","parameterNumber":2,"parameterNumberName":"U-component_of_CURRENTS"},"data":[0,0,0,0,0,0,0,0,0,0,0,0,0,0,0,0,0,0,0,0,0,0,0,0,0,0,0,0,0,0,0,0,0,0,0,0,0,0,0,0,0,0,0,0,0,0,0,0,0,0,0,0,0,0,0,0,0,0,0.2806,0.2806,0,0.2802,0.2802,0.2802,0.2791,0.2791,0.2791,0.2791,0.2785,0.2785,0.2785,0,0,0,0,0,0,0,0,0,0,0,0,0,0.2809,0.2809,0.2806,0.2806,0.2806,0.2802,0.2802,0.2802,0.2792,0.2791,0.2791,0.2791,0.2785,0.2785,0.2785,0,0,0,0,0,0,0,0,0,0,0,0,0,0.2805,0.2809,0.2806,0.2802,0.2802,0.2802,0.2802,0.2802,0.2792,0.2791,0.2791,0.2791,0.2785,0.2785,0.2785,0.2785,0,0,0.2784,0.2784,0,0,0,0,0,0,0,0,0.2805,0.2805,0.2803,0.2802,0.2802,0.2799,0.2801,0.2797,0.2792,0.2793,0.2791,0.2791,0.2791,0.279,0.2787,0.2784,0.2784,0.2784,0.2784,0.2784,0.2784,0,0,0,0,0,0,0,0.2806,0.2805,0.2802,0.2803,0.2803,0.2803,0.2802,0.28,0.2791,0.2793,0.2793,0.2796,0.279,0.2787,0.2787,0.2784,0.2784,0.2784,0.2784,0.2784,0.292,0.2924,0,0,0,0,0,0,0.281,0.2805,0.2803,0.2802,0.2806,0.2803,0.2802,0.2798,0.2791,0.279,0.2796,0.2795,0.2787,0.2787,0.2786,0.2875,0.2784,0.2784,0.2784,0.2917,0.2921,0.2925,0,0,0,0,0,0,0.281,0.2809,0.2803,0.2806,0.2805,0.2803,0.2799,0.2798,0.2808,0.2793,0.2792,0.2808,0.2787,0.2787,0.2811,0.2871,0.2784,0.2783,0.2912,0.2918,0.2923,0.2994,0,0,0,0,0,0,0.281,0.2809,0.2815,0.2806,0.2805,0.2817,0.28,0.2799,0.281,0.281,0.2804,0.2802,0.2787,0.2811,0.2811,0.2869,0.2783,0.2907,0.2915,0.2921,0.2987,0.3002,0.3014,0,0,0,0,0,0.281,0.2816,0.2815,0.2815,0.281,0.2818,0.2818,0.2815,0.2811,0.2822,0.2826,0.2803,0.2857,0.2813,0.2811,0.2871,0.2904,0.2913,0.2921,0.2981,0.2999,0.3014,0,0,0,0,0,0,0.2819,0.2815,0.2814,0.2818,0.2826,0.2818,0.2828,0.2826,0.2836,0.2841,0.2823,0.2823,0.2882,0.2869,0.2821,0.2941,0.2888,0.2897,0.2935,0.2952,0.2965,0.3003,0.2783,0,0,0,0,0,0.2824,0.2828,0.2828,0.2834,0.284,0.2838,0.2843,0.2844,0.2849,0.2853,0.285,0.2872,0.2915,0.2922,0.2949,0.2985,0.3005,0.3037,0.3051,0.3062,0.3098,0.3181,0.3204,0.2953,0.2953,0.2953,0,0,0.2828,0.2829,0.2831,0.2837,0.2842,0.2862,0.2841,0.2858,0.2888,0.2851,0.2892,0.2914,0.294,0.3,0.3026,0.2991,0.3141,0.3072,0.3081,0.3112,0.3192,0.3216,0.3238,0.2959,0.2958,0.2957,0,0,0.2841,0.2844,0.2852,0.2865,0.2881,0.2888,0.2899,0.2905,0.2924,0.2959,0.2971,0.3028,0.3051,0.31,0.3125,0.323,0.3217,0.3246,0.3328,0.3407,0.3428,0.3446,0.3481,0.3502,0.3242,0.3242,0.3242,0,0.285,0.2859,0.2859,0.2878,0.2898,0.2905,0.2931,0.2956,0.2974,0.3012,0.2987,0.3105,0.3112,0.3227,0.3276,0.3261,0.3289,0.3251,0.3422,0.3441,0.3459,0.349,0.3512,0.3246,0.3246,0.3245,0.3245,0,0.2867,0.2885,0.2896,0.2925,0.2948,0.2974,0.3009,0.3048,0.3072,0.3102,0.3213,0.3237,0.3312,0.3337,0.3335,0.3486,0.3459,0.3431,0.3371,0.3488,0.3513,0.3535,0.3253,0.3251,0.325,0.3249,0,0,0.2857,0.29,0.2904,0.293,0.2978,0.2997,0.3074,0.3147,0.3218,0.3259,0.3354,0.3453,0.3478,0.3515,0.3532,0.3608,0.3744,0.3583,0.3585,0.36,0.3902,0.3713,0.3718,0.3743,0.3748,0.3752,0.3859,0,0.2873,0.291,0.2937,0.2994,0.3017,0.3072,0.3146,0.3222,0.3289,0.3381,0.3459,0.3557,0.3542,0.3595,0.3673,0.3745,0.3811,0.3717,0.3804,0.3806,0.361,0.3741,0.3433,0.3489,0.388,0.3884,0.3886,0,0.2876,0.2904,0.2951,0.3035,0.3055,0.3106,0.3236,0.3306,0.345,0.3507,0.3621,0.3674,0.3825,0.3774,0.3956,0.3898,0.3922,0.3953,0.3957,0.3779,0.366,0.3443,0.3513,0.3923,0.392,0.3917,0.3915,0,0.285,0.2916,0.2955,0.298,0.3076,0.3138,0.3212,0.3351,0.3439,0.3606,0.3687,0.3836,0.3924,0.4015,0.4063,0.404,0.4219,0.4179,0.4027,0.4011,0.3768,0.3721,0.4304,0.4304,0.4304,0.4304,0.4303,0,0.2848,0.288,0.2951,0.2975,0.3056,0.3137,0.3264,0.3359,0.352,0.3628,0.3757,0.3851,0.3998,0.409,0.4122,0.4133,0.4262,0.4082,0.4048,0.3778,0.3735,0.4124,0.4102,0.4308,0.4307,0.4306,0.4305,0,0.2806,0.2852,0.2895,0.2997,0.3041,0.31,0.3275,0.3383,0.3533,0.3678,0.3742,0.3917,0.4028,0.4112,0.4245,0.4186,0.4225,0.4178,0.3824,0.3745,0.3953,0.3934,0.407,0.4064,0.406,0.4056,0.4053,0,0.2784,0.2799,0.2886,0.2934,0.2987,0.3099,0.3202,0.3369,0.3465,0.3687,0.374,0.3907,0.3951,0.4054,0.4007,0.4012,0.412,0.3706,0.3608,0.3988,0.3942,0.3929,0.3917,0.3316,0.3307,0.33,0.3294,0,0.2746,0.2773,0.2821,0.2893,0.2989,0.3079,0.3213,0.3275,0.3461,0.3547,0.3637,0.3698,0.3791,0.3638,0.3631,0.3592,0.3684,0.3552,0.4092,0.3396,0.3278,0.3232,0.3245,0.3229,0.3235,0.324,0.3244,0.3246,0.2723,0.2727,0.2785,0.2847,0.295,0.3007,0.3017,0.3127,0.3184,0.3243,0.3402,0.337,0.341,0.3229,0.3115,0.3031,0.3294,0.3159,0.3183,0.3214,0.308,0.2958,0.2823,0.2827,0.2831,0.2834,0.2837,0,0.2668,0.2687,0.2745,0.279,0.2824,0.2918,0.2986,0.2928,0.2873,0.2981,0.2989,0.2741,0.2632,0.2679,0.2446,0.2419,0.2413,0.232,0.2304,0.237,0.2429,0.2255,0.178,0.1777,0.1774,0.177,0,0,0.2647,0.2653,0.2657,0.2638,0.2676,0.2637,0.262,0.2535,0.2525,0.2416,0.2372,0.2562,0.2628,0.2192,0.2113,0.1912,0.2132,0.1829,0.2684,0.2736,0.279,0.2923,0.2731,0,0,0,0,0]},{"header":{"parameterUnit":"m.s-1","parameterCategory":2,"la1":30.2991,"la2":30.254,"lo1":-89.0895,"lo2":-89.0444,"dy":0.0017,"dx":0.0017,"nx":28,"ny":28,"refTime":"2024-06-08T03:00:00:Z","depth":"2","parameterNumber":3,"parameterNumberName":"V-component_of_CURRENTS"},"data":[0,0,0,0,0,0,0,0,0,0,0,0,0,0,0,0,0,0,0,0,0,0,0,0,0,0,0,0,0,0,0,0,0,0,0,0,0,0,0,0,0,0,0,0,0,0,0,0,0,0,0,0,0,0,0,0,0,0,0.0105,0.0105,0,0.0079,0.0078,0.0078,0.0063,0.0063,0.0063,0.0063,0.0034,0.0033,0.0032,0,0,0,0,0,0,0,0,0,0,0,0,0,0.0123,0.0123,0.0105,0.0105,0.0105,0.0079,0.0078,0.0078,0.0063,0.0063,0.0063,0.0063,0.0034,0.0033,0.0032,0,0,0,0,0,0,0,0,0,0,0,0,0,0.0108,0.0123,0.0105,0.0094,0.0093,0.0079,0.0078,0.0078,0.0063,0.0063,0.0063,0.0063,0.0034,0.0033,0.0032,0.0027,0,0,0.0029,0.0028,0,0,0,0,0,0,0,0,0.0109,0.0107,0.0096,0.0095,0.0093,0.0074,0.0074,0.0061,0.0063,0.0074,0.0063,0.0062,0.0047,0.0045,0.004,0.0026,0.0024,0.0029,0.0028,0.0028,0.0027,0,0,0,0,0,0,0,0.011,0.0108,0.0095,0.0096,0.0094,0.0083,0.0081,0.0071,0.0061,0.0073,0.0072,0.0069,0.0046,0.0041,0.0039,0.0024,0.0029,0.0028,0.0027,0.0027,0.003,0.003,0,0,0,0,0,0,0.0114,0.0109,0.0095,0.0094,0.0101,0.0083,0.0081,0.008,0.0061,0.0058,0.0069,0.0068,0.0043,0.0041,0.0038,0.0062,0.0028,0.0027,0.0026,0.0029,0.003,0.0031,0,0,0,0,0,0,0.0115,0.0114,0.0096,0.0101,0.0098,0.0083,0.0082,0.008,0.0078,0.0058,0.0055,0.0071,0.0043,0.004,0.0036,0.006,0.0026,0.0025,0.0028,0.0029,0.003,0.009,0,0,0,0,0,0,0.0116,0.0114,0.0116,0.0101,0.0098,0.0096,0.0082,0.0079,0.0076,0.0075,0.0059,0.0056,0.0043,0.0038,0.0035,0.0058,0.0024,0.0027,0.0029,0.003,0.0087,0.0093,0.0098,0,0,0,0,0,0.0116,0.0122,0.0117,0.0115,0.0101,0.0097,0.0095,0.0083,0.0077,0.0081,0.0069,0.0056,0.0045,0.0037,0.0034,0.0057,0.0027,0.0028,0.003,0.0085,0.0092,0.0098,0,0,0,0,0,0,0.0132,0.0121,0.0114,0.0116,0.011,0.0095,0.0097,0.0087,0.0081,0.0081,0.0061,0.0057,0.0065,0.005,0.0042,0.0061,0.0036,0.0037,0.0079,0.0085,0.009,0.012,0.0023,0,0,0,0,0,0.0136,0.0139,0.0125,0.0129,0.0126,0.0112,0.0109,0.0102,0.0093,0.009,0.0079,0.007,0.0068,0.0067,0.006,0.0067,0.0057,0.008,0.0086,0.0091,0.0112,0.0115,0.0124,0.0036,0.0036,0.0036,0,0,0.0143,0.0138,0.0139,0.0133,0.0126,0.0137,0.011,0.0111,0.0127,0.0088,0.0104,0.0086,0.0073,0.0085,0.0087,0.0076,0.0106,0.0093,0.0097,0.0116,0.0118,0.0127,0.0134,0.0037,0.0037,0.0037,0,0,0.0165,0.0154,0.0166,0.0165,0.016,0.0156,0.0159,0.0147,0.0148,0.0155,0.0137,0.0136,0.0126,0.0129,0.0127,0.0158,0.0134,0.0151,0.0205,0.0208,0.0216,0.0222,0.0206,0.021,0.0156,0.0156,0.0156,0,0.0175,0.019,0.017,0.0184,0.0195,0.0169,0.0195,0.019,0.0181,0.0196,0.017,0.0176,0.0154,0.0187,0.0194,0.0174,0.0162,0.0181,0.0217,0.0223,0.0229,0.021,0.0214,0.0159,0.0159,0.0158,0.0158,0,0.0206,0.0222,0.023,0.0245,0.0253,0.0268,0.0264,0.0275,0.027,0.0268,0.029,0.026,0.0272,0.0257,0.0233,0.0269,0.0241,0.0221,0.0203,0.0241,0.0218,0.0222,0.0163,0.0162,0.0161,0.0161,0,0,0.0231,0.025,0.0256,0.0285,0.029,0.0309,0.0336,0.0365,0.0404,0.0379,0.043,0.0406,0.0389,0.0387,0.0355,0.035,0.0361,0.0305,0.0304,0.0294,0.0354,0.0303,0.0301,0.0344,0.0346,0.0347,0.0316,0,0.027,0.0316,0.0316,0.0378,0.0408,0.0407,0.0444,0.0465,0.0473,0.051,0.0483,0.0512,0.0439,0.0453,0.0433,0.0392,0.0376,0.037,0.0315,0.0313,0.0267,0.0306,0.0317,0.0289,0.032,0.032,0.032,0,0.0309,0.034,0.0401,0.0467,0.0482,0.052,0.0594,0.0623,0.0654,0.0663,0.0673,0.0648,0.0649,0.0577,0.0522,0.0522,0.0447,0.0396,0.0393,0.0334,0.027,0.0258,0.0294,0.0326,0.0326,0.0325,0.0325,0,0.0354,0.041,0.0469,0.0486,0.0544,0.0592,0.0633,0.0677,0.0735,0.077,0.0821,0.0787,0.0802,0.0712,0.059,0.0567,0.0515,0.0471,0.035,0.0345,0.034,0.0332,0.0431,0.0431,0.0431,0.0431,0.0431,0,0.0402,0.0454,0.0501,0.0537,0.0635,0.0655,0.0768,0.0796,0.0869,0.0967,0.0912,0.0974,0.0838,0.0783,0.0646,0.0513,0.0557,0.0377,0.0345,0.0357,0.0351,0.0373,0.0367,0.043,0.043,0.043,0.0431,0,0.0443,0.0466,0.0545,0.0623,0.0658,0.0733,0.0864,0.0953,0.0999,0.1129,0.1156,0.1134,0.1058,0.0895,0.0751,0.0605,0.047,0.0402,0.0411,0.0381,0.0281,0.0278,0.0285,0.0283,0.0282,0.028,0.0279,0,0.0468,0.0508,0.0608,0.0678,0.0723,0.0837,0.0935,0.1013,0.1121,0.1235,0.1317,0.1272,0.1255,0.1002,0.0743,0.0499,0.0455,0.0331,0.0288,0.0303,0.0272,0.0271,0.027,0.0298,0.0297,0.0296,0.0296,0,0.0525,0.0555,0.0626,0.0757,0.0873,0.1003,0.1148,0.1249,0.1366,0.146,0.1559,0.1546,0.1314,0.1061,0.0708,0.0533,0.037,0.0308,0.0354,0.0325,0.0311,0.028,0.0281,0.029,0.029,0.0291,0.0291,0.0291,0.0576,0.0634,0.0729,0.0859,0.0994,0.1162,0.1281,0.1431,0.1587,0.1733,0.1713,0.1685,0.1402,0.0944,0.0643,0.032,0.0341,0.0213,0.0217,0.0222,0.0221,0.0205,0.0162,0.0162,0.0162,0.0162,0.0162,0,0.0641,0.0711,0.0833,0.0996,0.1147,0.1208,0.1426,0.1535,0.171,0.1815,0.1867,0.1578,0.1299,0.0967,0.05,0.0219,0.0202,0.0108,0.0158,0.0166,0.0173,0.0171,0.0098,0.0097,0.0096,0.0095,0,0,0.0685,0.08,0.0857,0.1097,0.1221,0.1423,0.1545,0.1685,0.1787,0.1855,0.1837,0.1789,0.1398,0.1039,0.0656,0.0385,0.0337,0.0317,0.0399,0.0512,0.0522,0.0261,0.0269,0,0,0,0,0]}],[{"header":{"parameterUnit":"m.s-1","parameterCategory":2,"la1":30.2991,"la2":30.254,"lo1":-89.0895,"lo2":-89.0444,"dy":0.0017,"dx":0.0017,"nx":28,"ny":28,"refTime":"2024-06-08T03:00:00:Z","depth":"4","parameterNumber":2,"parameterNumberName":"U-component_of_CURRENTS"},"data":[0,0,0,0,0,0,0,0,0,0,0,0,0,0,0,0,0,0,0,0,0,0,0,0,0,0,0,0,0,0,0,0,0,0,0,0,0,0,0,0,0,0,0,0,0,0,0,0,0,0,0,0,0,0,0,0,0,0,0.1811,0.1811,0,0.1845,0.1845,0.1845,0.1892,0.1893,0.1894,0.1895,0.1939,0.1939,0.1939,0,0,0,0,0,0,0,0,0,0,0,0,0,0.1778,0.1778,0.181,0.1811,0.1812,0.1845,0.1845,0.1845,0.1892,0.1893,0.1895,0.1896,0.1939,0.1939,0.1939,0,0,0,0,0,0,0,0,0,0,0,0,0,0.1798,0.1778,0.181,0.184,0.1844,0.1845,0.1845,0.1845,0.1892,0.1894,0.1895,0.1896,0.1939,0.1939,0.194,0.1913,0,0,0.1941,0.1941,0,0,0,0,0,0,0,0,0.1797,0.1799,0.1835,0.1838,0.1842,0.1867,0.185,0.1869,0.1892,0.1872,0.1895,0.1897,0.1916,0.1918,0.1919,0.1915,0.1917,0.1941,0.1941,0.1941,0.1941,0,0,0,0,0,0,0,0.1796,0.1798,0.1822,0.1836,0.184,0.185,0.1854,0.1853,0.1884,0.1874,0.1878,0.1884,0.1918,0.1918,0.192,0.1918,0.1941,0.1941,0.1941,0.1941,0.1998,0.1999,0,0,0,0,0,0,0.1794,0.1797,0.1821,0.1823,0.1825,0.1849,0.1854,0.1856,0.1884,0.189,0.1883,0.1886,0.1917,0.192,0.1922,0.1994,0.1941,0.1942,0.1942,0.1996,0.1998,0.1999,0,0,0,0,0,0,0.1793,0.1795,0.182,0.1813,0.1817,0.1849,0.1851,0.1856,0.1898,0.1891,0.1897,0.1924,0.1918,0.1921,0.1956,0.1993,0.1942,0.1942,0.1995,0.1997,0.1999,0.2073,0,0,0,0,0,0,0.1792,0.1795,0.1816,0.1812,0.1817,0.1848,0.185,0.1856,0.1898,0.1904,0.1927,0.1931,0.192,0.1956,0.1956,0.1992,0.1942,0.1993,0.1996,0.1998,0.2069,0.2077,0.2084,0,0,0,0,0,0.179,0.1805,0.1817,0.1821,0.1838,0.1849,0.1853,0.1879,0.1899,0.1922,0.194,0.1932,0.1971,0.1957,0.1958,0.1994,0.1992,0.1995,0.1998,0.2066,0.2076,0.2084,0,0,0,0,0,0,0.1805,0.1811,0.1824,0.1842,0.186,0.1859,0.1887,0.1901,0.1932,0.1951,0.1945,0.1949,0.1999,0.1981,0.1965,0.2017,0.1982,0.1985,0.2033,0.2042,0.205,0.2066,0.1943,0,0,0,0,0,0.1816,0.1833,0.1838,0.186,0.1871,0.1888,0.1904,0.1921,0.1937,0.1955,0.1971,0.1986,0.2002,0.2012,0.2024,0.2043,0.2055,0.2068,0.2075,0.2082,0.2096,0.2149,0.2163,0.2009,0.2009,0.2009,0,0,0.1828,0.1836,0.1848,0.1866,0.1884,0.1896,0.1903,0.1939,0.1958,0.1953,0.2002,0.2023,0.2017,0.205,0.2068,0.2043,0.2132,0.2086,0.2091,0.2102,0.2153,0.2169,0.2182,0.2011,0.201,0.201,0,0,0.1845,0.1871,0.1885,0.19,0.1932,0.1936,0.1956,0.198,0.2007,0.2044,0.2053,0.2104,0.2112,0.2126,0.2128,0.2183,0.218,0.2183,0.2226,0.2278,0.2291,0.2303,0.2338,0.2353,0.2176,0.2176,0.2176,0,0.1867,0.1875,0.1895,0.1909,0.1922,0.1957,0.197,0.1996,0.2033,0.2061,0.2074,0.2142,0.2151,0.2189,0.2214,0.2204,0.2223,0.2192,0.229,0.2302,0.2313,0.2346,0.2361,0.218,0.2179,0.2179,0.2178,0,0.1874,0.1898,0.1911,0.1934,0.1954,0.1978,0.2002,0.2047,0.2088,0.2115,0.2194,0.2219,0.2264,0.2272,0.226,0.2339,0.2325,0.2304,0.2269,0.2333,0.2363,0.2378,0.2185,0.2184,0.2183,0.2182,0,0,0.187,0.1908,0.1917,0.193,0.1969,0.198,0.2027,0.2069,0.212,0.2182,0.2244,0.2301,0.2352,0.2358,0.2367,0.2406,0.2508,0.2392,0.2393,0.2432,0.2619,0.2428,0.2425,0.2507,0.2509,0.2512,0.2609,0,0.1872,0.1892,0.1914,0.1944,0.195,0.1998,0.2036,0.209,0.2151,0.2226,0.2287,0.236,0.2369,0.2415,0.2464,0.2504,0.255,0.2484,0.2546,0.2548,0.2375,0.2436,0.2521,0.2619,0.2623,0.2625,0.2627,0,0.1859,0.1872,0.1896,0.194,0.1953,0.1987,0.2063,0.2107,0.2214,0.2272,0.2368,0.2423,0.2522,0.2511,0.2634,0.2593,0.2624,0.2641,0.2645,0.245,0.2383,0.2541,0.2653,0.2651,0.2649,0.2647,0.2645,0,0.1812,0.1857,0.1876,0.189,0.1949,0.199,0.2038,0.2134,0.2184,0.2324,0.2395,0.2506,0.2593,0.2653,0.2714,0.2692,0.2821,0.2789,0.2644,0.2631,0.2743,0.2729,0.2875,0.2874,0.2874,0.2874,0.2874,0,0.1773,0.1795,0.1868,0.1875,0.1913,0.1978,0.2053,0.212,0.2236,0.2309,0.2438,0.2512,0.2639,0.2719,0.2747,0.2739,0.2861,0.2666,0.2646,0.277,0.2758,0.2753,0.2737,0.2877,0.2877,0.2876,0.2875,0,0.1702,0.1758,0.178,0.1858,0.1889,0.1921,0.2035,0.2081,0.2231,0.2331,0.2386,0.2553,0.2667,0.2748,0.285,0.2773,0.2781,0.2745,0.2881,0.2865,0.2551,0.2538,0.2595,0.2589,0.2584,0.258,0.2576,0,0.166,0.1669,0.1746,0.1761,0.1802,0.1874,0.1912,0.2052,0.2103,0.2334,0.2359,0.2537,0.2631,0.2631,0.2725,0.2748,0.2714,0.2689,0.261,0.2549,0.2525,0.252,0.2515,0.2568,0.2567,0.2566,0.2564,0,0.1571,0.162,0.1633,0.1665,0.1708,0.1738,0.1818,0.1842,0.202,0.2185,0.2287,0.2353,0.247,0.2533,0.2564,0.2574,0.2683,0.2636,0.2646,0.2572,0.2518,0.2498,0.2498,0.2547,0.2549,0.2551,0.2552,0,0.1508,0.149,0.1529,0.154,0.1591,0.1582,0.1639,0.171,0.1789,0.2046,0.2081,0.2283,0.2455,0.2444,0.2476,0.2464,0.2426,0.2326,0.2351,0.2371,0.2246,0.2142,0.205,0,0,0,0,0,0.1424,0.1389,0.1396,0.1397,0.1444,0.148,0.1562,0.1632,0.1822,0.1835,0.1954,0.2057,0.2138,0.2234,0.2178,0.2353,0.2414,0.2273,0.2305,0.2451,0.2471,0.2341,0,0,0,0,0,0,0.1367,0.1361,0.1349,0.129,0.1279,0.1309,0.1359,0.1476,0.1494,0.1708,0.1765,0.1931,0.2036,0.2171,0.2151,0.2172,0.2143,0.2393,0.2387,0.244,0.2458,0.2474,0.2348,0,0,0,0,0]},{"header":{"parameterUnit":"m.s-1","parameterCategory":2,"la1":30.2991,"la2":30.254,"lo1":-89.0895,"lo2":-89.0444,"dy":0.0017,"dx":0.0017,"nx":28,"ny":28,"refTime":"2024-06-08T03:00:00:Z","depth":"4","parameterNumber":3,"parameterNumberName":"V-component_of_CURRENTS"},"data":[0,0,0,0,0,0,0,0,0,0,0,0,0,0,0,0,0,0,0,0,0,0,0,0,0,0,0,0,0,0,0,0,0,0,0,0,0,0,0,0,0,0,0,0,0,0,0,0,0,0,0,0,0,0,0,0,0,0,0.0069,0.0069,0,0.0054,0.0054,0.0054,0.0046,0.0046,0.0046,0.0046,0.0037,0.0037,0.0037,0,0,0,0,0,0,0,0,0,0,0,0,0,0.0078,0.0078,0.0069,0.0069,0.0069,0.0054,0.0054,0.0054,0.0046,0.0046,0.0046,0.0046,0.0037,0.0037,0.0037,0,0,0,0,0,0,0,0,0,0,0,0,0,0.007,0.0078,0.0069,0.0063,0.0062,0.0054,0.0054,0.0054,0.0046,0.0046,0.0046,0.0046,0.0037,0.0037,0.0037,0.0035,0,0,0.0036,0.0035,0,0,0,0,0,0,0,0,0.007,0.0069,0.0064,0.0064,0.0063,0.0052,0.0054,0.0048,0.0046,0.0053,0.0046,0.0046,0.0043,0.0042,0.0039,0.0035,0.0034,0.0036,0.0035,0.0035,0.0035,0,0,0,0,0,0,0,0.0071,0.007,0.0063,0.0064,0.0063,0.0056,0.0055,0.0053,0.0048,0.0052,0.0051,0.0049,0.0042,0.004,0.0039,0.0034,0.0036,0.0035,0.0035,0.0035,0.0056,0.0057,0,0,0,0,0,0,0.0073,0.0071,0.0064,0.0063,0.0066,0.0056,0.0055,0.0056,0.0048,0.0047,0.005,0.0049,0.004,0.0039,0.0039,0.0064,0.0035,0.0035,0.0035,0.0055,0.0056,0.0057,0,0,0,0,0,0,0.0073,0.0073,0.0065,0.0066,0.0065,0.0056,0.0057,0.0055,0.0055,0.0046,0.0045,0.0051,0.004,0.0039,0.0041,0.0063,0.0035,0.0034,0.0054,0.0055,0.0056,0.0098,0,0,0,0,0,0,0.0074,0.0073,0.0075,0.0066,0.0065,0.0066,0.0057,0.0055,0.0054,0.0054,0.0047,0.0046,0.004,0.0042,0.0041,0.0062,0.0034,0.0053,0.0055,0.0056,0.0096,0.01,0.0104,0,0,0,0,0,0.0074,0.0078,0.0076,0.0075,0.0068,0.0066,0.0065,0.0059,0.0054,0.0058,0.0053,0.0047,0.0051,0.0042,0.0041,0.0062,0.0053,0.0054,0.0056,0.0094,0.0099,0.0104,0,0,0,0,0,0,0.0083,0.0078,0.0074,0.0077,0.0074,0.0065,0.0067,0.0062,0.006,0.0061,0.0051,0.005,0.006,0.0054,0.0045,0.0073,0.0053,0.0054,0.0082,0.0087,0.0091,0.0105,0.0034,0,0,0,0,0,0.0086,0.009,0.0082,0.0086,0.0085,0.0076,0.0075,0.0072,0.0068,0.0067,0.0063,0.0062,0.0066,0.007,0.0069,0.0081,0.006,0.0096,0.01,0.0104,0.0115,0.0091,0.0094,0.0062,0.0062,0.0062,0,0,0.0091,0.0089,0.009,0.0088,0.0085,0.0096,0.0076,0.0078,0.0093,0.0067,0.0085,0.0074,0.0071,0.0087,0.0092,0.0085,0.0101,0.0106,0.011,0.0119,0.0093,0.0096,0.0099,0.0064,0.0063,0.0063,0,0,0.0106,0.01,0.011,0.0112,0.0111,0.011,0.0112,0.0107,0.011,0.0121,0.0109,0.0111,0.0115,0.012,0.0123,0.0151,0.0121,0.0151,0.019,0.0166,0.0169,0.017,0.0139,0.0138,0.0158,0.0158,0.0158,0,0.0113,0.0127,0.0113,0.0126,0.0139,0.012,0.0142,0.0142,0.014,0.0152,0.0134,0.0144,0.0136,0.0162,0.0173,0.0163,0.0137,0.0169,0.0171,0.0173,0.0174,0.0142,0.014,0.016,0.016,0.016,0.016,0,0.0137,0.0153,0.016,0.0176,0.0185,0.0199,0.02,0.021,0.021,0.021,0.0226,0.0207,0.0218,0.0214,0.0202,0.0216,0.019,0.0174,0.0157,0.0179,0.0144,0.0141,0.0163,0.0163,0.0162,0.0161,0,0,0.0151,0.0173,0.0179,0.0206,0.0216,0.0232,0.0258,0.0283,0.031,0.0294,0.0323,0.0319,0.0301,0.0303,0.0283,0.0263,0.0242,0.0226,0.0223,0.0193,0.0179,0.0164,0.0159,0.0219,0.0219,0.0219,0.0148,0,0.018,0.0222,0.0227,0.0282,0.0308,0.0312,0.0345,0.0363,0.0368,0.0385,0.0362,0.0377,0.0338,0.0343,0.0316,0.0261,0.0237,0.0262,0.0164,0.0161,0.0143,0.0157,0.0218,0.0146,0.0145,0.0145,0.0144,0,0.0209,0.0238,0.0292,0.0353,0.0367,0.04,0.0459,0.0484,0.0496,0.0498,0.0494,0.0464,0.0445,0.0401,0.0318,0.0332,0.0266,0.0213,0.0208,0.0181,0.0142,0.012,0.0139,0.0139,0.014,0.014,0.014,0,0.0236,0.0291,0.0343,0.036,0.0415,0.0457,0.0493,0.0523,0.0561,0.0568,0.0586,0.0542,0.053,0.0439,0.033,0.0322,0.0221,0.0197,0.0121,0.0118,0.0133,0.0131,0.0139,0.0139,0.014,0.014,0.014,0,0.027,0.0315,0.0366,0.0396,0.0481,0.0503,0.0589,0.0612,0.0648,0.0698,0.0649,0.0661,0.0538,0.0462,0.035,0.0227,0.0236,0.0133,0.0104,0.0151,0.0152,0.0129,0.0129,0.0137,0.0138,0.0138,0.0139,0,0.029,0.0317,0.0387,0.0461,0.0495,0.0557,0.066,0.0717,0.074,0.0797,0.0803,0.0752,0.0655,0.0518,0.0367,0.0268,0.0142,0.0096,0.0156,0.013,0.0047,0.005,0.0007,0.0006,0.0005,0.0004,0.0003,0,0.0303,0.0337,0.0434,0.049,0.0532,0.0629,0.0701,0.076,0.0817,0.0852,0.0879,0.0807,0.0753,0.0533,0.0377,0.0161,0.0128,0.0055,0.0053,0.006,0.0036,0.004,0.0044,0.0002,0.0002,0.0002,0.0001,0,0.0334,0.0365,0.0425,0.0534,0.0625,0.0726,0.0828,0.0869,0.0933,0.0956,0.0947,0.0836,0.0726,0.0541,0.0375,0.0218,0.0096,0.0045,0.0046,0.0043,0.0053,0.0031,0.0036,-0.0001,-0.0001,-0.0001,-0.0001,0,0.0361,0.0406,0.0483,0.0585,0.0693,0.079,0.0844,0.0916,0.097,0.0998,0.099,0.0871,0.0803,0.0571,0.0416,0.0261,0.0217,0.0154,0.0148,0.0149,0.0206,0.024,0.0226,0,0,0,0,0,0.0384,0.0439,0.0532,0.0643,0.0745,0.0811,0.0917,0.0958,0.101,0.1014,0.1005,0.0902,0.0683,0.0588,0.0432,0.0381,0.0175,0.0189,0.0096,-0.0018,-0.0014,0.0026,0,0,0,0,0,0,0.0405,0.0484,0.0532,0.067,0.0748,0.087,0.0935,0.0971,0.0973,0.0994,0.0883,0.0849,0.0637,0.0775,0.0426,0.038,0.0295,0.0096,0.0092,-0.002,-0.0017,-0.0014,0.0029,0,0,0,0,0]}]]